BAW59 EGLL-FACT

Flight info

Callsign BAW59
Flight time N/A
Altitude 33000
Route MAXIT Y803 MID L612 BOGNA UL612 VEULE DCT DEKOD UN857 DISAK DCT MINPA DCT FJR DCT OBLAD DCT KAMER UM998 CSO UA605 AMIRA/N0492F350 UA605 DJA UB730 DIR UA607 FL UA403 ISDET/N0496F370 UA403 BZ DCT KSA UT943 IMVEX/N0492F380 UT943 UNLOK/N0488F390 UT943 VEDRY/N0488F380 UN185 OKLOK DCT ERDAS ERDAS1C
Aircraft A35K/H-SDE2E3GHIJ3J4J5LM1ORWXY/LB1D1

Departure

Time 2026-05-04 19:43
Airport London Heathrow Airport (EGLL)

Arrival

Time N/A
Airport Cape Town International Airport (FACT)
Time Latitude Longitude Altitude Speed Heading
2026-05-04 17:48 51.46984 -0.47733 106 ft 0 kts 89°
2026-05-04 19:31 51.46984 -0.47742 93 ft 4 kts 89°
2026-05-04 19:31 51.46984 -0.47785 92 ft 4 kts 89°
2026-05-04 19:32 51.46984 -0.47820 93 ft 4 kts 97°
2026-05-04 19:32 51.46992 -0.47857 94 ft 4 kts 141°
2026-05-04 19:32 51.47013 -0.47869 91 ft 4 kts 179°
2026-05-04 19:32 51.47040 -0.47869 92 ft 3 kts 179°
2026-05-04 19:33 51.47044 -0.47869 92 ft 0 kts 179°
2026-05-04 19:33 51.47044 -0.47870 92 ft 0 kts 179°
2026-05-04 19:38 51.47043 -0.47870 92 ft 0 kts 180°
2026-05-04 19:39 51.47036 -0.47870 92 ft 1 kts 179°
2026-05-04 19:39 51.47018 -0.47870 92 ft 7 kts 180°
2026-05-04 19:39 51.46913 -0.47873 93 ft 19 kts 180°
2026-05-04 19:39 51.46811 -0.47876 92 ft 14 kts 180°
2026-05-04 19:40 51.46782 -0.47893 94 ft 11 kts 212°
2026-05-04 19:40 51.46746 -0.48066 95 ft 9 kts 272°
2026-05-04 19:40 51.46746 -0.48081 95 ft 0 kts 268°
2026-05-04 19:40 51.46745 -0.48096 95 ft 2 kts 268°
2026-05-04 19:41 51.46745 -0.48097 95 ft 1 kts 268°
2026-05-04 19:41 51.46745 -0.48107 95 ft 3 kts 268°
2026-05-04 19:41 51.46716 -0.48196 95 ft 14 kts 213°
2026-05-04 19:41 51.46599 -0.48217 95 ft 7 kts 183°
2026-05-04 19:42 51.46549 -0.48218 91 ft 13 kts 179°
2026-05-04 19:42 51.46478 -0.48063 95 ft 27 kts 91°
2026-05-04 19:42 51.46478 -0.47863 95 ft 0 kts 91°
2026-05-04 19:42 51.46476 -0.47575 95 ft 66 kts 90°
2026-05-04 19:43 51.46483 -0.46414 98 ft 142 kts 90°
2026-05-04 19:43 51.46486 -0.44479 307 ft 189 kts 89°
2026-05-04 19:43 51.46529 -0.42417 1159 ft 173 kts 88°
2026-05-04 19:43 51.46459 -0.40574 1715 ft 166 kts 97°
2026-05-04 19:44 51.46220 -0.38618 1749 ft 191 kts 120°
2026-05-04 19:44 51.45178 -0.37251 1868 ft 206 kts 167°
2026-05-04 19:44 51.43713 -0.36991 2178 ft 219 kts 175°
2026-05-04 19:44 51.42147 -0.36624 2485 ft 237 kts 169°
2026-05-04 19:45 51.40493 -0.36129 2890 ft 249 kts 175°
2026-05-04 19:45 51.38764 -0.36451 3455 ft 253 kts 201°
2026-05-04 19:45 51.37161 -0.37639 4091 ft 255 kts 207°
2026-05-04 19:45 51.35574 -0.38931 4695 ft 258 kts 206°
2026-05-04 19:46 51.33949 -0.40223 5323 ft 261 kts 206°
2026-05-04 19:46 51.32296 -0.41517 5763 ft 264 kts 206°
2026-05-04 19:46 51.30651 -0.42810 5916 ft 264 kts 206°
2026-05-04 19:46 51.29013 -0.44102 5914 ft 264 kts 206°
2026-05-04 19:47 51.27370 -0.45393 5909 ft 265 kts 206°
2026-05-04 19:47 51.25774 -0.46895 5906 ft 265 kts 219°
2026-05-04 19:47 51.24631 -0.49154 5900 ft 265 kts 244°
2026-05-04 19:47 51.24251 -0.52038 5909 ft 267 kts 271°
2026-05-04 19:48 51.24425 -0.54975 5904 ft 268 kts 271°
2026-05-04 19:48 51.24316 -0.57948 5893 ft 267 kts 251°
2026-05-04 19:48 51.23344 -0.60365 5914 ft 262 kts 219°
2026-05-04 19:48 51.21755 -0.61790 6008 ft 264 kts 199°
2026-05-04 19:49 51.19967 -0.62386 6427 ft 267 kts 185°
2026-05-04 19:49 51.18118 -0.62293 7121 ft 268 kts 172°
2026-05-04 19:49 51.16298 -0.61617 7815 ft 271 kts 166°
2026-05-04 19:49 51.14460 -0.60834 8488 ft 273 kts 170°
2026-05-04 19:50 51.12576 -0.60580 9183 ft 274 kts 184°
2026-05-04 19:50 51.10668 -0.60820 9878 ft 276 kts 188°
2026-05-04 19:50 51.09245 -0.61147 10262 ft 283 kts 191°
2026-05-04 19:50 51.07531 -0.61578 10537 ft 297 kts 187°
2026-05-04 19:51 51.05395 -0.61470 10825 ft 315 kts 170°
2026-05-04 19:51 51.03297 -0.60285 11127 ft 332 kts 156°
2026-05-04 19:51 51.01225 -0.58483 11445 ft 348 kts 150°
2026-05-04 19:51 50.99143 -0.56316 11744 ft 363 kts 147°
2026-05-04 19:52 50.97048 -0.53971 12082 ft 376 kts 146°
2026-05-04 19:52 50.94908 -0.51543 12611 ft 383 kts 146°
2026-05-04 19:52 50.92700 -0.49071 13229 ft 387 kts 147°
2026-05-04 19:52 50.90497 -0.46651 13870 ft 390 kts 147°
2026-05-04 19:53 50.88233 -0.44207 14433 ft 394 kts 148°
2026-05-04 19:53 50.85959 -0.41783 14981 ft 398 kts 148°
2026-05-04 19:53 50.83651 -0.39340 15536 ft 401 kts 148°
2026-05-04 19:53 50.81306 -0.36865 16087 ft 405 kts 148°
2026-05-04 19:54 50.78969 -0.34401 16648 ft 408 kts 148°
2026-05-04 19:54 50.76605 -0.31912 17185 ft 411 kts 148°
2026-05-04 19:54 50.74204 -0.29384 17758 ft 415 kts 149°
2026-05-04 19:54 50.71810 -0.26866 18301 ft 418 kts 149°
2026-05-04 19:55 50.69357 -0.24285 18823 ft 421 kts 149°
2026-05-04 19:55 50.66921 -0.21721 19363 ft 424 kts 149°
2026-05-04 19:55 50.64454 -0.19133 19927 ft 426 kts 149°
2026-05-04 19:55 50.62001 -0.16564 20502 ft 428 kts 149°
2026-05-04 19:56 50.59499 -0.13950 21055 ft 431 kts 149°
2026-05-04 19:56 50.57004 -0.11346 21602 ft 434 kts 149°
2026-05-04 19:56 50.54471 -0.08705 22143 ft 437 kts 150°
2026-05-04 19:56 50.51921 -0.06049 22689 ft 440 kts 150°
2026-05-04 19:57 50.49372 -0.03397 23229 ft 443 kts 150°
2026-05-04 19:57 50.46801 -0.00725 23700 ft 446 kts 150°
2026-05-04 19:57 50.44201 0.01975 24175 ft 449 kts 150°
2026-05-04 19:57 50.41589 0.04689 24639 ft 451 kts 150°
2026-05-04 19:58 50.38977 0.07393 25105 ft 453 kts 150°
2026-05-04 19:58 50.36355 0.10103 25559 ft 455 kts 150°
2026-05-04 19:58 50.33714 0.12833 25994 ft 458 kts 150°
2026-05-04 19:58 50.31055 0.15571 26461 ft 460 kts 151°
2026-05-04 19:59 50.28354 0.18348 26902 ft 462 kts 151°
2026-05-04 19:59 50.25674 0.21100 27326 ft 465 kts 151°
2026-05-04 19:59 50.22969 0.23874 27744 ft 467 kts 151°
2026-05-04 19:59 50.20232 0.26680 28164 ft 469 kts 151°
2026-05-04 20:00 50.17512 0.29471 28565 ft 470 kts 151°
2026-05-04 20:00 50.14786 0.32275 29031 ft 470 kts 152°
2026-05-04 20:00 50.12078 0.35063 29635 ft 468 kts 152°
2026-05-04 20:00 50.09348 0.37869 30170 ft 466 kts 152°
2026-05-04 20:01 50.06657 0.40630 30552 ft 465 kts 152°
2026-05-04 20:01 50.03974 0.43375 30905 ft 465 kts 152°
2026-05-04 20:01 50.01259 0.46148 31230 ft 464 kts 152°
2026-05-04 20:01 49.98569 0.48890 31551 ft 465 kts 152°
2026-05-04 20:02 49.95850 0.51658 31903 ft 463 kts 153°
2026-05-04 20:02 49.93180 0.54378 32414 ft 459 kts 153°
2026-05-04 20:02 49.90524 0.57080 32773 ft 458 kts 153°
2026-05-04 20:02 49.87858 0.59781 32934 ft 461 kts 153°
2026-05-04 20:03 49.85138 0.62529 32947 ft 466 kts 153°
2026-05-04 20:03 49.79677 0.67920 32944 ft 465 kts 154°
2026-05-04 20:04 49.74193 0.73211 32932 ft 465 kts 154°
2026-05-04 20:04 49.68725 0.78486 32944 ft 463 kts 154°
2026-05-04 20:05 49.63259 0.83766 32948 ft 463 kts 154°
2026-05-04 20:05 49.57806 0.89026 32947 ft 463 kts 154°
2026-05-04 20:06 49.52349 0.94280 32957 ft 462 kts 155°
2026-05-04 20:06 49.46944 0.99471 32961 ft 460 kts 155°
2026-05-04 20:07 49.41504 1.04678 32966 ft 460 kts 155°
2026-05-04 20:07 49.36070 1.09864 32966 ft 459 kts 155°
2026-05-04 20:08 49.30662 1.15013 32965 ft 459 kts 155°
2026-05-04 20:08 49.25241 1.20163 32962 ft 458 kts 155°
2026-05-04 20:09 49.19818 1.25299 32961 ft 458 kts 155°
2026-05-04 20:09 49.14394 1.30423 32963 ft 458 kts 155°
2026-05-04 20:10 49.08972 1.35534 32958 ft 458 kts 156°
2026-05-04 20:10 49.03554 1.40626 32966 ft 458 kts 156°
2026-05-04 20:11 48.98132 1.45708 32961 ft 458 kts 156°
2026-05-04 20:11 48.92741 1.50750 32962 ft 458 kts 156°
2026-05-04 20:12 48.87287 1.55837 32960 ft 458 kts 156°
2026-05-04 20:12 48.81862 1.60884 32961 ft 457 kts 156°
2026-05-04 20:13 48.76438 1.65916 32958 ft 457 kts 156°
2026-05-04 20:13 48.71001 1.70947 32964 ft 457 kts 156°
2026-05-04 20:14 48.65541 1.75920 32963 ft 456 kts 159°
2026-05-04 20:14 48.59753 1.79575 32966 ft 453 kts 168°
2026-05-04 20:15 48.53747 1.82522 32963 ft 453 kts 169°
2026-05-04 20:15 48.47733 1.85322 32962 ft 452 kts 169°
2026-05-04 20:16 48.41715 1.88138 32950 ft 452 kts 169°
2026-05-04 20:16 48.35740 1.90960 32971 ft 453 kts 169°
2026-05-04 20:17 48.29723 1.93808 32969 ft 453 kts 169°
2026-05-04 20:17 48.23696 1.96654 32968 ft 453 kts 169°
2026-05-04 20:18 48.17700 1.99477 32969 ft 453 kts 169°
2026-05-04 20:18 48.11698 2.02295 32979 ft 452 kts 169°
2026-05-04 20:19 48.05689 2.05108 32991 ft 452 kts 169°
2026-05-04 20:19 47.99693 2.07909 32992 ft 452 kts 169°
2026-05-04 20:20 47.93689 2.10707 32994 ft 452 kts 169°
2026-05-04 20:20 47.87677 2.13501 32992 ft 454 kts 169°
2026-05-04 20:21 47.81632 2.16303 32996 ft 455 kts 169°
2026-05-04 20:21 47.72589 2.20485 32978 ft 455 kts 169°
2026-05-04 20:22 47.66574 2.23258 32976 ft 454 kts 169°
2026-05-04 20:22 47.60512 2.26046 32979 ft 454 kts 169°
2026-05-04 20:23 47.54477 2.28813 32982 ft 455 kts 168°
2026-05-04 20:23 47.48435 2.31578 32978 ft 455 kts 168°
2026-05-04 20:24 47.42395 2.34336 32992 ft 455 kts 168°
2026-05-04 20:24 47.36372 2.37079 32985 ft 455 kts 169°
2026-05-04 20:25 47.31299 2.39382 32991 ft 457 kts 168°
2026-05-04 20:25 47.25254 2.42123 32990 ft 457 kts 168°
2026-05-04 20:26 47.19161 2.44880 32992 ft 457 kts 168°
2026-05-04 20:26 47.13068 2.47630 32966 ft 458 kts 168°
2026-05-04 20:27 47.06937 2.50389 32993 ft 461 kts 168°
2026-05-04 20:27 47.00788 2.53150 32992 ft 462 kts 168°
2026-05-04 20:28 46.94663 2.55895 32994 ft 462 kts 168°
2026-05-04 20:28 46.88526 2.58640 32993 ft 460 kts 168°
2026-05-04 20:29 46.82414 2.61365 32992 ft 459 kts 168°
2026-05-04 20:29 46.76307 2.64080 32993 ft 459 kts 168°
2026-05-04 20:30 46.70229 2.66777 32993 ft 459 kts 168°
2026-05-04 20:30 46.64112 2.69485 32993 ft 459 kts 168°
2026-05-04 20:31 46.57982 2.72192 32996 ft 459 kts 168°
2026-05-04 20:31 46.51897 2.74873 32997 ft 459 kts 168°
2026-05-04 20:32 46.45811 2.77549 33001 ft 459 kts 168°
2026-05-04 20:32 46.39705 2.80227 33004 ft 459 kts 168°
2026-05-04 20:33 46.33588 2.82902 33003 ft 460 kts 168°
2026-05-04 20:33 46.27436 2.85587 33010 ft 461 kts 168°
2026-05-04 20:34 46.21315 2.88253 33006 ft 461 kts 168°
2026-05-04 20:34 46.15153 2.90931 33010 ft 461 kts 168°
2026-05-04 20:35 46.09033 2.93583 33008 ft 461 kts 168°
2026-05-04 20:35 46.02914 2.96230 33016 ft 461 kts 168°
2026-05-04 20:36 45.96764 2.98884 33016 ft 461 kts 168°
2026-05-04 20:36 45.90602 3.01536 33017 ft 461 kts 168°
2026-05-04 20:37 45.84487 3.04162 33017 ft 461 kts 168°
2026-05-04 20:37 45.78340 3.06796 33020 ft 461 kts 168°
2026-05-04 20:38 45.72180 3.09429 33020 ft 461 kts 168°
2026-05-04 20:38 45.66068 3.12037 33021 ft 460 kts 168°
2026-05-04 20:39 45.59926 3.14650 33018 ft 459 kts 168°
2026-05-04 20:39 45.53796 3.17253 33018 ft 459 kts 168°
2026-05-04 20:40 45.47691 3.19838 33028 ft 460 kts 168°
2026-05-04 20:40 45.41575 3.22423 33031 ft 460 kts 168°
2026-05-04 20:41 45.35422 3.25018 33033 ft 460 kts 168°
2026-05-04 20:41 45.29277 3.27602 33032 ft 461 kts 168°
2026-05-04 20:42 45.23153 3.30173 33028 ft 461 kts 168°
2026-05-04 20:42 45.16998 3.32751 33035 ft 461 kts 168°
2026-05-04 20:43 45.10852 3.35319 33034 ft 461 kts 168°
2026-05-04 20:43 45.04681 3.37893 33035 ft 462 kts 168°
2026-05-04 20:44 44.98504 3.40462 33045 ft 462 kts 168°
2026-05-04 20:44 44.92369 3.43008 33032 ft 462 kts 168°
2026-05-04 20:45 44.86185 3.45569 33039 ft 462 kts 168°
2026-05-04 20:45 44.80044 3.48107 33042 ft 463 kts 168°
2026-05-04 20:46 44.73864 3.50656 33045 ft 462 kts 168°
2026-05-04 20:46 44.67707 3.53189 33055 ft 462 kts 168°
2026-05-04 20:47 44.61535 3.55722 33057 ft 462 kts 168°
2026-05-04 20:47 44.55353 3.58254 33046 ft 462 kts 167°
2026-05-04 20:48 44.49158 3.60785 33062 ft 464 kts 167°
2026-05-04 20:48 44.42992 3.63299 33069 ft 464 kts 167°
2026-05-04 20:49 44.36792 3.65823 33054 ft 464 kts 167°
2026-05-04 20:49 44.30593 3.68340 33068 ft 463 kts 167°
2026-05-04 20:50 44.24430 3.70836 33066 ft 463 kts 167°
2026-05-04 20:50 44.18224 3.73344 33069 ft 463 kts 167°
2026-05-04 20:51 44.12051 3.75834 33071 ft 463 kts 167°
2026-05-04 20:51 44.05852 3.78328 33072 ft 462 kts 167°
2026-05-04 20:52 43.99699 3.80798 33061 ft 463 kts 167°
2026-05-04 20:52 43.93530 3.83271 33074 ft 463 kts 167°
2026-05-04 20:53 43.87338 3.85746 33073 ft 463 kts 167°
2026-05-04 20:53 43.81143 3.88218 33070 ft 463 kts 168°
2026-05-04 20:54 43.74940 3.90687 33059 ft 463 kts 167°
2026-05-04 20:54 43.68757 3.93143 33067 ft 463 kts 167°
2026-05-04 20:55 43.62557 3.95601 33061 ft 463 kts 167°
2026-05-04 20:55 43.56463 3.98362 33077 ft 466 kts 161°
2026-05-04 20:56 43.50490 4.01861 33075 ft 466 kts 160°
2026-05-04 20:56 43.44531 4.05478 33071 ft 466 kts 160°
2026-05-04 20:57 43.38622 4.09063 33066 ft 466 kts 160°
2026-05-04 20:57 43.32703 4.12631 33061 ft 466 kts 160°
2026-05-04 20:58 43.26747 4.16203 33057 ft 466 kts 160°
2026-05-04 20:58 43.20788 4.19769 33034 ft 466 kts 160°
2026-05-04 20:59 43.14830 4.23327 33037 ft 468 kts 160°
2026-05-04 20:59 43.08885 4.26871 33052 ft 468 kts 160°
2026-05-04 21:00 43.02918 4.30420 33056 ft 467 kts 160°
2026-05-04 21:00 42.96952 4.33961 33048 ft 467 kts 160°
2026-05-04 21:01 42.90974 4.37502 33056 ft 467 kts 160°
2026-05-04 21:01 42.85030 4.41015 33058 ft 467 kts 160°
2026-05-04 21:02 42.79068 4.44531 33061 ft 467 kts 160°
2026-05-04 21:02 42.73123 4.48029 33055 ft 467 kts 160°
2026-05-04 21:03 42.67156 4.51534 33054 ft 467 kts 160°
2026-05-04 21:03 42.61172 4.55041 33049 ft 467 kts 160°
2026-05-04 21:04 42.55244 4.58507 33043 ft 467 kts 160°
2026-05-04 21:04 42.49242 4.62008 33046 ft 471 kts 160°
2026-05-04 21:05 42.43185 4.65535 33047 ft 473 kts 160°
2026-05-04 21:05 42.37169 4.69033 33047 ft 473 kts 160°
2026-05-04 21:06 42.31151 4.72524 33042 ft 473 kts 160°
2026-05-04 21:06 42.25093 4.76030 33053 ft 474 kts 160°
2026-05-04 21:07 42.19020 4.79537 33039 ft 474 kts 160°
2026-05-04 21:07 42.12955 4.83033 33038 ft 474 kts 160°
2026-05-04 21:08 42.06877 4.86528 33041 ft 475 kts 160°
2026-05-04 21:08 42.00799 4.90015 33042 ft 477 kts 160°
2026-05-04 21:09 41.94704 4.93506 33044 ft 477 kts 160°
2026-05-04 21:09 41.88624 4.96981 33033 ft 478 kts 160°
2026-05-04 21:10 41.82468 5.00480 33041 ft 480 kts 161°
2026-05-04 21:10 41.76148 5.03285 33054 ft 478 kts 166°
2026-05-04 21:11 41.69771 5.05845 33049 ft 478 kts 167°
2026-05-04 21:11 41.63440 5.08344 33043 ft 478 kts 167°
2026-05-04 21:12 41.57047 5.10868 33051 ft 479 kts 167°
2026-05-04 21:12 41.50643 5.13402 33049 ft 479 kts 167°
2026-05-04 21:13 41.44304 5.15910 33038 ft 479 kts 168°
2026-05-04 21:13 41.37892 5.18441 33050 ft 479 kts 168°
2026-05-04 21:14 41.31499 5.20958 33048 ft 479 kts 168°
2026-05-04 21:14 41.25136 5.23459 33047 ft 479 kts 168°
2026-05-04 21:15 41.18754 5.25963 33046 ft 479 kts 169°
2026-05-04 21:15 41.12349 5.28469 33051 ft 479 kts 169°
2026-05-04 21:16 41.05943 5.30971 33048 ft 479 kts 169°
2026-05-04 21:16 40.99569 5.33456 33023 ft 479 kts 169°
2026-05-04 21:17 40.93126 5.35961 33047 ft 484 kts 169°
2026-05-04 21:17 40.86668 5.38467 33043 ft 485 kts 169°
2026-05-04 21:18 40.80184 5.40981 33048 ft 485 kts 169°
2026-05-04 21:18 40.73707 5.43486 33047 ft 487 kts 169°
2026-05-04 21:19 40.67198 5.45997 33046 ft 487 kts 169°
2026-05-04 21:19 40.60720 5.48492 33047 ft 487 kts 169°
2026-05-04 21:20 40.54206 5.50996 33048 ft 487 kts 170°
2026-05-04 21:20 40.47697 5.53493 33045 ft 487 kts 170°
2026-05-04 21:21 40.41178 5.55988 33042 ft 487 kts 170°
2026-05-04 21:21 40.34688 5.58467 33043 ft 487 kts 170°
2026-05-04 21:22 40.28169 5.60952 33041 ft 489 kts 170°
2026-05-04 21:22 40.21644 5.63434 33042 ft 489 kts 170°
2026-05-04 21:23 40.15136 5.65906 33043 ft 489 kts 170°
2026-05-04 21:23 40.08589 5.68387 33040 ft 489 kts 170°
2026-05-04 21:24 40.02065 5.70855 33043 ft 489 kts 170°
2026-05-04 21:24 39.95503 5.73329 33041 ft 493 kts 170°
2026-05-04 21:25 39.88895 5.75817 33041 ft 494 kts 170°
2026-05-04 21:25 39.82317 5.78291 33042 ft 494 kts 170°
2026-05-04 21:26 39.75694 5.80777 33045 ft 494 kts 170°
2026-05-04 21:26 39.69105 5.83245 33045 ft 494 kts 170°
2026-05-04 21:27 39.62517 5.85706 33043 ft 495 kts 170°
2026-05-04 21:27 39.55892 5.88176 33045 ft 496 kts 170°
2026-05-04 21:28 39.49248 5.90650 33045 ft 496 kts 170°
2026-05-04 21:28 39.42622 5.93112 33032 ft 496 kts 170°
2026-05-04 21:29 39.35984 5.95572 33048 ft 498 kts 170°
2026-05-04 21:29 39.29312 5.98040 33048 ft 499 kts 170°
2026-05-04 21:30 39.22669 6.00494 33045 ft 499 kts 170°
2026-05-04 21:30 39.15972 6.02963 33044 ft 500 kts 171°
2026-05-04 21:31 39.05939 6.06646 33048 ft 503 kts 171°
2026-05-04 21:32 38.99199 6.08901 33050 ft 497 kts 176°
2026-05-04 21:32 38.92366 6.10388 33047 ft 499 kts 177°
2026-05-04 21:33 38.85461 6.11751 33048 ft 501 kts 178°
2026-05-04 21:33 38.78607 6.13089 33048 ft 501 kts 178°
2026-05-04 21:34 38.71720 6.14445 33031 ft 501 kts 178°
2026-05-04 21:34 38.64800 6.15811 33059 ft 503 kts 178°
2026-05-04 21:35 38.57908 6.17171 33056 ft 503 kts 178°
2026-05-04 21:35 38.50993 6.18533 33038 ft 503 kts 178°
2026-05-04 21:36 38.45186 6.19675 33046 ft 504 kts 178°
2026-05-04 21:36 38.38288 6.21027 33049 ft 505 kts 178°
2026-05-04 21:37 38.31375 6.22381 33042 ft 504 kts 178°
2026-05-04 21:37 38.24410 6.23742 33045 ft 505 kts 178°
2026-05-04 21:38 38.17478 6.25094 33049 ft 505 kts 178°
2026-05-04 21:38 38.10564 6.26440 33030 ft 505 kts 178°
2026-05-04 21:39 38.03609 6.27791 33039 ft 505 kts 178°
2026-05-04 21:39 37.96653 6.29138 33036 ft 507 kts 179°
2026-05-04 21:40 37.89696 6.30483 33039 ft 509 kts 178°
2026-05-04 21:40 37.82686 6.31838 33038 ft 509 kts 178°
2026-05-04 21:41 37.75713 6.33184 33033 ft 509 kts 179°
2026-05-04 21:41 37.68682 6.34535 33035 ft 511 kts 179°
2026-05-04 21:42 37.61660 6.35884 33026 ft 511 kts 179°
2026-05-04 21:42 37.54649 6.37227 33028 ft 511 kts 179°
2026-05-04 21:43 37.47603 6.38575 33028 ft 512 kts 179°
2026-05-04 21:43 37.40587 6.39915 33031 ft 512 kts 179°
2026-05-04 21:44 37.33536 6.41259 33029 ft 512 kts 179°
2026-05-04 21:44 37.26479 6.42601 33026 ft 512 kts 179°
2026-05-04 21:45 37.19456 6.43935 33026 ft 513 kts 179°
2026-05-04 21:45 37.12399 6.45272 33041 ft 513 kts 179°
2026-05-04 21:46 37.05350 6.46606 33017 ft 512 kts 178°
2026-05-04 21:46 36.98332 6.47931 33041 ft 514 kts 178°
2026-05-04 21:47 36.91213 6.49271 33048 ft 515 kts 178°
2026-05-04 21:47 36.84182 6.50593 33060 ft 515 kts 178°
2026-05-04 21:48 36.77063 6.51930 33056 ft 514 kts 178°
2026-05-04 21:48 36.70055 6.53245 33070 ft 512 kts 178°
2026-05-04 21:49 36.63003 6.54564 33082 ft 512 kts 178°
2026-05-04 21:49 36.55961 6.55877 33076 ft 512 kts 178°
2026-05-04 21:50 36.48899 6.57193 33130 ft 512 kts 178°
2026-05-04 21:50 36.41897 6.58496 33148 ft 512 kts 178°